Afton Municipal Airport, WY

3:25 AM MST on December 16, 2019 (GMT -0700)
Afton Municipal

Weather History for KAFO - August, 2019

Change the Weather History Date:

Monday, August 26, 2019

  Actual Average Record
Temperature  
Mean Temperature 52 °F -  
Max Temperature 69 °F 79 °F 86 °F (2017)
Min Temperature 35 °F 41 °F 30 °F (2016)
Degree Days  
Heating Degree Days 13    
Growing Degree Days 2 (Base 50)    
Moisture  
Dew Point 31 °F    
Average Humidity 46    
Maximum Humidity 87    
Minimum Humidity 23    
Precipitation  
Precipitation 0.00 in - - ()
Sea Level Pressure  
Sea Level Pressure 30.22 in    
Wind  
Wind Speed 4 mph ()    
Max Wind Speed 13 mph    
Max Gust Speed 21 mph    
Visibility 10.0 miles    
Events      
Averages and records for this station are not official NWS values.
T = Trace of Precipitation, MM = Missing Value Source: Averaged Metar Reports

Daily Weather History Graph

Daily Weather History Graph

Search for Another Location

Airport or City:

Astronomy

Aug. 26, 2019 Rise Set
Actual Time 6:41 AM MDT 8:08 PM MDT
Civil Twilight 6:12 AM MDT 8:37 PM MDT
Nautical Twilight 5:36 AM MDT 9:13 PM MDT
Astronomical Twilight 4:58 AM MDT 9:50 PM MDT
Moon 2:05 AM MDT (8/26) 5:40 PM MDT (8/26)
Length of Visible Light 14h 25m
Length of Day
13h 26m
Waning Crescent, 19% of the Moon is Illuminated
Aug 26
Waning Crescent
Aug 30
New
Sep 5
First Quarter
Sep 13
Full
Sep 21
Last Quarter

Hourly Weather History & Observations

Time (MDT) Temp. Windchill Dew Point Humidity Pressure Visibility Wind Dir Wind Speed Gust Speed Precip Events Conditions
12:15 AM 59.0 °F - 28.4 °F 31% 30.13 in 10.0 mi NNE 5.8 mph - N/A   Clear
12:35 AM 57.2 °F - 28.4 °F 33% 30.14 in 10.0 mi NE 5.8 mph - N/A   Clear
12:55 AM 59.0 °F - 28.4 °F 31% 30.15 in 10.0 mi NE 5.8 mph - N/A   Clear
1:15 AM 55.4 °F - 30.2 °F 38% 30.14 in 10.0 mi North 3.5 mph - N/A   Clear
1:35 AM 55.4 °F - 30.2 °F 38% 30.15 in 10.0 mi ENE 4.6 mph - N/A   Clear
1:55 AM 51.8 °F - 30.2 °F 44% 30.15 in 10.0 mi South 3.5 mph - N/A   Clear
2:15 AM 50.0 °F - 32.0 °F 50% 30.15 in 10.0 mi Calm Calm - N/A   Clear
2:35 AM 46.4 °F - 32.0 °F 57% 30.15 in 10.0 mi Calm Calm - N/A   Clear
2:55 AM 44.6 °F - 32.0 °F 61% 30.15 in 10.0 mi Calm Calm - N/A   Clear
3:15 AM 41.0 °F - 32.0 °F 70% 30.16 in 10.0 mi Calm Calm - N/A   Clear
3:35 AM 37.4 °F - 32.0 °F 81% 30.17 in 10.0 mi Calm Calm - N/A   Clear
3:55 AM 39.2 °F 37.0 °F 32.0 °F 75% 30.17 in 10.0 mi South 3.5 mph - N/A   Clear
4:15 AM 39.2 °F 37.0 °F 32.0 °F 75% 30.17 in 10.0 mi South 3.5 mph - N/A   Clear
4:35 AM 37.4 °F - 32.0 °F 81% 30.17 in 10.0 mi Calm Calm - N/A   Clear
4:55 AM 37.4 °F 32.8 °F 32.0 °F 81% 30.18 in 10.0 mi South 5.8 mph - N/A   Clear
5:15 AM 37.4 °F 32.8 °F 32.0 °F 81% 30.19 in 10.0 mi South 5.8 mph - N/A   Clear
5:35 AM 39.2 °F - 30.2 °F 70% 30.19 in 10.0 mi Calm Calm - N/A   Clear
5:55 AM 37.4 °F 34.9 °F 32.0 °F 81% 30.19 in 10.0 mi SSE 3.5 mph - N/A   Clear
6:15 AM 37.4 °F 34.9 °F 30.2 °F 75% 30.20 in 10.0 mi South 3.5 mph - N/A   Clear
6:35 AM 37.4 °F - 32.0 °F 81% 30.21 in 10.0 mi Calm Calm - N/A   Clear
6:55 AM 35.6 °F - 32.0 °F 87% 30.22 in 10.0 mi Calm Calm - N/A   Clear
7:15 AM 37.4 °F 33.8 °F 32.0 °F 81% 30.22 in 10.0 mi South 4.6 mph - N/A   Clear
7:35 AM 35.6 °F 32.8 °F 32.0 °F 87% 30.23 in 10.0 mi SSE 3.5 mph - N/A   Clear
7:55 AM 41.0 °F - 32.0 °F 70% 30.24 in 10.0 mi Calm Calm - N/A   Clear
8:15 AM 46.4 °F - 32.0 °F 57% 30.25 in 10.0 mi Calm Calm - N/A   Clear
8:35 AM 48.2 °F - 32.0 °F 54% 30.25 in 10.0 mi Calm Calm - N/A   Clear
9:15 AM 53.6 °F - 32.0 °F 44% 30.25 in 10.0 mi Calm Calm - N/A   Clear
9:55 AM 57.2 °F - 33.8 °F 41% 30.25 in 10.0 mi Calm Calm - N/A   Clear
10:15 AM 59.0 °F - 33.8 °F 39% 30.25 in 10.0 mi NNW 3.5 mph - N/A   Clear
10:35 AM 60.8 °F - 33.8 °F 36% 30.25 in 10.0 mi Calm Calm - N/A   Clear
10:55 AM 60.8 °F - 32.0 °F 34% 30.25 in 10.0 mi Calm Calm - N/A   Clear
11:15 AM 62.6 °F - 30.2 °F 30% 30.25 in 10.0 mi Calm Calm - N/A   Clear
11:35 AM 62.6 °F - 30.2 °F 30% 30.25 in 10.0 mi WNW 4.6 mph - N/A   Clear
11:55 AM 64.4 °F - 30.2 °F 28% 30.25 in 10.0 mi ENE 3.5 mph - N/A   Clear
12:15 PM 66.2 °F - 32.0 °F 28% 30.24 in 10.0 mi North 8.1 mph - N/A   Clear
12:35 PM 66.2 °F - 30.2 °F 26% 30.24 in 10.0 mi West 4.6 mph - N/A   Clear
12:55 PM 66.2 °F - 30.2 °F 26% 30.23 in 10.0 mi NNE 10.4 mph - N/A   Clear
1:15 PM 68.0 °F - 30.2 °F 24% 30.23 in 10.0 mi NNE 5.8 mph 18.4 mph N/A   Clear
1:35 PM 68.0 °F - 28.4 °F 23% 30.23 in 10.0 mi North 10.4 mph 16.1 mph N/A   Clear
1:55 PM 69.8 °F - 32.0 °F 25% 30.22 in 10.0 mi NNW 8.1 mph - N/A   Clear
2:15 PM 68.0 °F - 30.2 °F 24% 30.22 in 10.0 mi North 4.6 mph 16.1 mph N/A   Clear
2:35 PM 69.8 °F - 32.0 °F 25% 30.22 in 10.0 mi NW 12.7 mph - N/A   Clear
2:55 PM 69.8 °F - 32.0 °F 25% 30.22 in 10.0 mi North 6.9 mph - N/A   Clear
3:15 PM 69.8 °F - 32.0 °F 25% 30.21 in 10.0 mi WNW 11.5 mph 16.1 mph N/A   Clear
3:35 PM 69.8 °F - 32.0 °F 25% 30.21 in 10.0 mi WNW 6.9 mph - N/A   Clear
3:55 PM 69.8 °F - 33.8 °F 27% 30.21 in 10.0 mi West 12.7 mph 18.4 mph N/A   Clear
4:15 PM 69.8 °F - 32.0 °F 25% 30.21 in 10.0 mi WNW 8.1 mph 20.7 mph N/A   Clear
4:35 PM 69.8 °F - 32.0 °F 25% 30.21 in 10.0 mi West 8.1 mph - N/A   Clear
4:55 PM 69.8 °F - 32.0 °F 25% 30.21 in 10.0 mi WNW 5.8 mph - N/A   Clear
5:15 PM 69.8 °F - 32.0 °F 25% 30.21 in 10.0 mi West 10.4 mph 17.3 mph N/A   Clear
5:35 PM 68.0 °F - 32.0 °F 26% 30.21 in 10.0 mi West 9.2 mph - N/A   Clear
5:55 PM 68.0 °F - 32.0 °F 26% 30.21 in 10.0 mi WNW 8.1 mph - N/A   Clear
6:15 PM 68.0 °F - 33.8 °F 28% 30.22 in 10.0 mi WNW 9.2 mph - N/A   Clear
6:35 PM 66.2 °F - 32.0 °F 28% 30.22 in 10.0 mi NW 8.1 mph - N/A   Clear
6:55 PM 64.4 °F - 32.0 °F 30% 30.22 in 10.0 mi NNW 8.1 mph - N/A   Clear
7:15 PM 62.6 °F - 32.0 °F 32% 30.23 in 10.0 mi NNW 8.1 mph - N/A   Clear
7:35 PM 59.0 °F - 32.0 °F 36% 30.24 in 10.0 mi North 6.9 mph - N/A   Clear
7:55 PM 57.2 °F - 32.0 °F 38% 30.24 in 10.0 mi North 4.6 mph - N/A   Clear
8:15 PM 57.2 °F - 28.4 °F 33% 30.25 in 10.0 mi NNE 4.6 mph - N/A   Clear
8:35 PM 59.0 °F - 26.6 °F 29% 30.25 in 10.0 mi Calm Calm - N/A   Clear
8:55 PM 53.6 °F - 26.6 °F 35% 30.26 in 10.0 mi Calm Calm - N/A   Clear
9:15 PM 55.4 °F - 26.6 °F 33% 30.27 in 10.0 mi North - - N/A   Clear
9:35 PM 44.6 °F 42.2 °F 32.0 °F 61% 30.27 in 10.0 mi SW 4.6 mph - N/A   Clear
9:55 PM 44.6 °F - 32.0 °F 61% 30.27 in 10.0 mi Calm Calm - N/A   Clear
10:15 PM 42.8 °F 40.1 °F 32.0 °F 66% 30.27 in 10.0 mi South 4.6 mph - N/A   Clear
10:35 PM 44.6 °F - 30.2 °F 57% 30.28 in 10.0 mi Calm Calm - N/A   Clear
10:55 PM 44.6 °F 40.2 °F 30.2 °F 57% 30.28 in 10.0 mi South 8.1 mph - N/A   Clear
11:15 PM 42.8 °F - 30.2 °F 61% 30.28 in 10.0 mi Calm Calm - N/A   Clear
11:35 PM 42.8 °F 38.0 °F 30.2 °F 61% 30.28 in 10.0 mi South 8.1 mph - N/A   Clear
11:55 PM 42.8 °F - 28.4 °F 57% 30.28 in 10.0 mi Calm Calm - N/A   Clear